Time,TemperatureF,DewpointF,PressureIn,WindDirection,WindDirectionDegrees,WindSpeedMPH,WindSpeedGustMPH,Humidity,HourlyPrecipIn,Conditions,Clouds,dailyrainin,SoftwareType,DateUTC
2013-09-29 00:00:00,59.6,58.8,30.10,WNW,297,0.0,1.0,97,0.00,,---,0.00,VWS V14.01,2013-09-29 04:00:00,
2013-09-29 00:01:00,59.4,58.8,30.10,WSW,245,0.0,1.0,98,0.00,,---,0.00,VWS V14.01,2013-09-29 04:01:00,
2013-09-29 00:02:00,59.4,58.8,30.10,WSW,246,0.0,1.0,98,0.00,,---,0.00,VWS V14.01,2013-09-29 04:02:00,
2013-09-29 00:04:00,59.5,58.9,30.10,WSW,246,0.0,1.0,98,0.00,,---,0.00,VWS V14.01,2013-09-29 04:04:00,
2013-09-29 00:05:00,59.5,58.9,30.09,WNW,297,0.0,0.0,98,0.00,,---,0.00,VWS V14.01,2013-09-29 04:05:00,
2013-09-29 00:09:00,60.1,59.2,30.10,West,269,0.0,1.0,97,0.00,,---,0.00,VWS V14.01,2013-09-29 04:09:00,
2013-09-29 00:10:00,59.3,58.5,30.10,WNW,297,0.0,0.0,97,0.00,,---,0.00,VWS V14.01,2013-09-29 04:10:00,
2013-09-29 00:14:00,60.8,59.4,30.10,SW,221,1.0,2.0,95,0.00,,---,0.00,VWS V14.01,2013-09-29 04:14:00,
2013-09-29 00:15:00,59.2,58.6,30.10,WNW,297,0.0,0.0,98,0.00,,---,0.00,VWS V14.01,2013-09-29 04:15:00,
2013-09-29 00:19:00,61.2,59.5,30.11,SW,235,2.0,2.0,94,0.00,,---,0.00,VWS V14.01,2013-09-29 04:19:00,
2013-09-29 00:20:00,59.1,58.2,30.10,WNW,297,0.0,1.0,97,0.00,,---,0.00,VWS V14.01,2013-09-29 04:20:00,
2013-09-29 00:24:00,61.3,59.3,30.11,WSW,242,0.0,2.0,93,0.00,,---,0.00,VWS V14.01,2013-09-29 04:24:00,
2013-09-29 00:25:00,59.0,58.4,30.10,WNW,297,0.0,0.0,98,0.00,,---,0.00,VWS V14.01,2013-09-29 04:25:00,
2013-09-29 00:29:00,61.6,59.6,30.10,SW,232,0.0,1.0,93,0.00,,---,0.00,VWS V14.01,2013-09-29 04:29:00,
2013-09-29 00:30:00,59.1,58.5,30.10,WNW,297,0.0,0.0,98,0.00,,---,0.00,VWS V14.01,2013-09-29 04:30:00,
2013-09-29 00:34:00,61.6,59.6,30.11,SW,233,0.0,1.0,93,0.00,,---,0.00,VWS V14.01,2013-09-29 04:34:00,
2013-09-29 00:35:00,59.1,58.5,30.10,WNW,297,0.0,1.0,98,0.00,,---,0.00,VWS V14.01,2013-09-29 04:35:00,
2013-09-29 00:39:00,61.7,59.4,30.11,SW,233,1.0,2.0,92,0.00,,---,0.00,VWS V14.01,2013-09-29 04:39:00,
2013-09-29 00:40:00,59.1,58.5,30.10,WNW,297,0.0,0.0,98,0.00,,---,0.00,VWS V14.01,2013-09-29 04:40:00,
2013-09-29 00:44:00,62.1,59.5,30.11,SW,214,1.0,2.0,91,0.00,,---,0.00,VWS V14.01,2013-09-29 04:44:00,
2013-09-29 00:45:00,59.2,58.6,30.10,WNW,297,0.0,0.0,98,0.00,,---,0.00,VWS V14.01,2013-09-29 04:45:00,
2013-09-29 00:49:00,62.2,59.5,30.11,South,191,3.0,3.0,91,0.00,,---,0.00,VWS V14.01,2013-09-29 04:49:00,
2013-09-29 00:50:00,59.2,58.6,30.10,WNW,297,0.0,0.0,98,0.00,,---,0.00,VWS V14.01,2013-09-29 04:50:00,
2013-09-29 00:54:00,62.5,59.5,30.11,SSW,205,1.0,3.0,90,0.00,,---,0.00,VWS V14.01,2013-09-29 04:54:00,
2013-09-29 00:55:00,59.3,58.7,30.10,WNW,297,0.0,0.0,98,0.00,,---,0.00,VWS V14.01,2013-09-29 04:55:00,
2013-09-29 00:59:00,62.5,59.5,30.11,SW,234,2.0,2.0,90,0.00,,---,0.00,VWS V14.01,2013-09-29 04:59:00,
2013-09-29 01:00:00,59.3,58.7,30.10,WSW,245,0.0,1.0,98,0.00,,---,0.00,VWS V14.01,2013-09-29 05:00:00,
2013-09-29 01:04:00,62.7,59.4,30.11,SW,224,0.0,3.0,89,0.00,,---,0.00,VWS V14.01,2013-09-29 05:04:00,
2013-09-29 01:05:00,59.6,59.0,30.10,WSW,246,0.0,1.0,98,0.00,,---,0.00,VWS V14.01,2013-09-29 05:05:00,
2013-09-29 01:09:00,62.8,59.2,30.11,SW,235,3.0,3.0,88,0.00,,---,0.00,VWS V14.01,2013-09-29 05:09:00,
2013-09-29 01:10:00,60.2,59.3,30.10,WSW,255,1.0,2.0,97,0.00,,---,0.00,VWS V14.01,2013-09-29 05:10:00,
2013-09-29 01:14:00,63.0,58.8,30.11,SW,234,2.0,4.0,86,0.00,,---,0.00,VWS V14.01,2013-09-29 05:14:00,
2013-09-29 01:15:00,60.9,59.5,30.10,SW,231,0.0,2.0,95,0.00,,---,0.00,VWS V14.01,2013-09-29 05:15:00,
2013-09-29 01:19:00,63.3,58.7,30.11,WSW,250,0.0,2.0,85,0.00,,---,0.00,VWS V14.01,2013-09-29 05:19:00,
2013-09-29 01:20:00,61.2,59.5,30.11,West,259,0.0,2.0,94,0.00,,---,0.00,VWS V14.01,2013-09-29 05:20:00,
2013-09-29 01:24:00,63.4,58.8,30.11,West,266,1.0,2.0,85,0.00,,---,0.00,VWS V14.01,2013-09-29 05:24:00,
2013-09-29 01:25:00,61.4,59.4,30.11,WSW,240,1.0,2.0,93,0.00,,---,0.00,VWS V14.01,2013-09-29 05:25:00,
2013-09-29 01:29:00,63.4,58.5,30.11,WSW,258,0.0,2.0,84,0.00,,---,0.00,VWS V14.01,2013-09-29 05:29:00,
2013-09-29 01:30:00,61.6,59.6,30.10,SW,232,0.0,1.0,93,0.00,,---,0.00,VWS V14.01,2013-09-29 05:30:00,
2013-09-29 01:34:00,63.0,58.4,30.11,WSW,256,0.0,1.0,85,0.00,,---,0.00,VWS V14.01,2013-09-29 05:34:00,
2013-09-29 01:35:00,61.6,59.3,30.11,SW,223,1.0,1.0,92,0.00,,---,0.00,VWS V14.01,2013-09-29 05:35:00,
2013-09-29 01:39:00,62.4,58.5,30.11,WSW,256,1.0,1.0,87,0.00,,---,0.00,VWS V14.01,2013-09-29 05:39:00,
2013-09-29 01:40:00,61.7,59.4,30.11,WSW,240,1.0,2.0,92,0.00,,---,0.00,VWS V14.01,2013-09-29 05:40:00,
2013-09-29 01:44:00,62.0,58.7,30.11,SW,234,0.0,2.0,89,0.00,,---,0.00,VWS V14.01,2013-09-29 05:44:00,
2013-09-29 01:45:00,62.1,59.5,30.11,SW,216,0.0,2.0,91,0.00,,---,0.00,VWS V14.01,2013-09-29 05:45:00,
2013-09-29 01:49:00,61.6,58.3,30.11,SW,234,0.0,0.0,89,0.00,,---,0.00,VWS V14.01,2013-09-29 05:49:00,
2013-09-29 01:50:00,62.2,59.5,30.11,SW,222,1.0,3.0,91,0.00,,---,0.00,VWS V14.01,2013-09-29 05:50:00,
2013-09-29 01:54:00,61.1,58.5,30.11,SW,233,0.0,1.0,91,0.00,,---,0.00,VWS V14.01,2013-09-29 05:54:00,
2013-09-29 01:55:00,62.5,59.5,30.11,SSW,207,0.0,3.0,90,0.00,,---,0.00,VWS V14.01,2013-09-29 05:55:00,
2013-09-29 01:59:00,60.9,58.6,30.11,SW,233,0.0,1.0,92,0.00,,---,0.00,VWS V14.01,2013-09-29 05:59:00,
2013-09-29 02:00:00,62.5,59.2,30.11,SSW,210,1.0,2.0,89,0.00,,---,0.00,VWS V14.01,2013-09-29 06:00:00,
2013-09-29 02:04:00,60.8,58.8,30.11,SW,233,0.0,1.0,93,0.00,,---,0.00,VWS V14.01,2013-09-29 06:04:00,
2013-09-29 02:05:00,62.7,59.4,30.11,SW,221,0.0,3.0,89,0.00,,---,0.00,VWS V14.01,2013-09-29 06:05:00,
2013-09-29 02:09:00,60.7,58.7,30.11,SW,233,0.0,1.0,93,0.00,,---,0.00,VWS V14.01,2013-09-29 06:09:00,
2013-09-29 02:10:00,62.9,59.3,30.11,SW,226,1.0,3.0,88,0.00,,---,0.00,VWS V14.01,2013-09-29 06:10:00,
2013-09-29 02:14:00,60.7,58.7,30.11,SW,234,0.0,0.0,93,0.00,,---,0.00,VWS V14.01,2013-09-29 06:14:00,
2013-09-29 02:15:00,60.9,59.5,30.10,SW,231,0.0,2.0,95,0.00,,---,0.00,VWS V14.01,2013-09-29 06:15:00,
2013-09-29 02:19:00,60.7,58.7,30.11,SW,234,0.0,1.0,93,0.00,,---,0.00,VWS V14.01,2013-09-29 06:19:00,
2013-09-29 02:20:00,63.3,58.7,30.11,WSW,250,0.0,2.0,85,0.00,,---,0.00,VWS V14.01,2013-09-29 06:20:00,
2013-09-29 02:24:00,60.8,58.8,30.10,SW,234,0.0,1.0,93,0.00,,---,0.00,VWS V14.01,2013-09-29 06:24:00,
2013-09-29 02:25:00,61.4,59.4,30.11,WSW,240,1.0,2.0,93,0.00,,---,0.00,VWS V14.01,2013-09-29 06:25:00,
2013-09-29 02:29:00,60.8,58.8,30.10,SW,234,0.0,1.0,93,0.00,,---,0.00,VWS V14.01,2013-09-29 06:29:00,
2013-09-29 02:30:00,63.4,58.5,30.11,WSW,258,0.0,2.0,84,0.00,,---,0.00,VWS V14.01,2013-09-29 06:30:00,
2013-09-29 02:34:00,60.8,58.8,30.10,SW,234,0.0,1.0,93,0.00,,---,0.00,VWS V14.01,2013-09-29 06:34:00,
2013-09-29 02:35:00,63.0,58.4,30.11,WSW,256,0.0,1.0,85,0.00,,---,0.00,VWS V14.01,2013-09-29 06:35:00,
2013-09-29 02:39:00,60.9,58.6,30.10,SW,234,0.0,1.0,92,0.00,,---,0.00,VWS V14.01,2013-09-29 06:39:00,
2013-09-29 02:40:00,61.7,59.4,30.11,WSW,240,1.0,2.0,92,0.00,,---,0.00,VWS V14.01,2013-09-29 06:40:00,
2013-09-29 02:44:00,61.1,58.5,30.10,SW,234,0.0,1.0,91,0.00,,---,0.00,VWS V14.01,2013-09-29 06:44:00,
2013-09-29 02:45:00,62.0,58.7,30.11,SW,234,0.0,2.0,89,0.00,,---,0.00,VWS V14.01,2013-09-29 06:45:00,
2013-09-29 02:49:00,61.2,58.9,30.10,SW,224,1.0,1.0,92,0.00,,---,0.00,VWS V14.01,2013-09-29 06:49:00,
2013-09-29 02:50:00,61.5,58.5,30.11,SW,234,0.0,0.0,90,0.00,,---,0.00,VWS V14.01,2013-09-29 06:50:00,
2013-09-29 02:54:00,60.9,58.6,30.10,SW,224,0.0,1.0,92,0.00,,---,0.00,VWS V14.01,2013-09-29 06:54:00,
2013-09-29 02:55:00,61.1,58.5,30.11,SW,233,0.0,1.0,91,0.00,,---,0.00,VWS V14.01,2013-09-29 06:55:00,
2013-09-29 02:59:00,60.8,58.5,30.10,SW,224,0.0,0.0,92,0.00,,---,0.00,VWS V14.01,2013-09-29 06:59:00,
2013-09-29 03:00:00,60.9,58.6,30.11,SW,233,0.0,1.0,92,0.00,,---,0.00,VWS V14.01,2013-09-29 07:00:00,
2013-09-29 03:04:00,60.8,58.5,30.10,SW,224,0.0,1.0,92,0.00,,---,0.00,VWS V14.01,2013-09-29 07:04:00,
2013-09-29 03:05:00,60.8,58.8,30.11,SW,233,0.0,1.0,93,0.00,,---,0.00,VWS V14.01,2013-09-29 07:05:00,
2013-09-29 03:09:00,60.8,58.5,30.10,SW,225,0.0,1.0,92,0.00,,---,0.00,VWS V14.01,2013-09-29 07:09:00,
2013-09-29 03:10:00,60.7,58.7,30.11,SW,233,0.0,1.0,93,0.00,,---,0.00,VWS V14.01,2013-09-29 07:10:00,
2013-09-29 03:14:00,60.9,58.0,30.10,WSW,249,0.0,3.0,90,0.00,,---,0.00,VWS V14.01,2013-09-29 07:14:00,
2013-09-29 03:15:00,60.7,58.7,30.11,SW,234,0.0,0.0,93,0.00,,---,0.00,VWS V14.01,2013-09-29 07:15:00,
2013-09-29 03:19:00,61.1,58.2,30.09,WSW,245,0.0,2.0,90,0.00,,---,0.00,VWS V14.01,2013-09-29 07:19:00,
2013-09-29 03:20:00,60.7,58.7,30.11,SW,234,0.0,1.0,93,0.00,,---,0.00,VWS V14.01,2013-09-29 07:20:00,
2013-09-29 03:24:00,61.0,58.0,30.09,WSW,248,0.0,1.0,90,0.00,,---,0.00,VWS V14.01,2013-09-29 07:24:00,
2013-09-29 03:25:00,60.8,58.8,30.10,SW,233,0.0,1.0,93,0.00,,---,0.00,VWS V14.01,2013-09-29 07:25:00,
2013-09-29 03:29:00,61.1,57.8,30.09,WNW,285,1.0,2.0,89,0.00,,---,0.00,VWS V14.01,2013-09-29 07:29:00,
2013-09-29 03:30:00,60.8,58.8,30.10,SW,234,0.0,1.0,93,0.00,,---,0.00,VWS V14.01,2013-09-29 07:30:00,
2013-09-29 03:34:00,61.0,58.0,30.09,WSW,238,1.0,1.0,90,0.00,,---,0.00,VWS V14.01,2013-09-29 07:34:00,
2013-09-29 03:35:00,60.8,58.8,30.10,SW,234,0.0,1.0,93,0.00,,---,0.00,VWS V14.01,2013-09-29 07:35:00,
2013-09-29 03:39:00,60.8,57.8,30.09,WSW,241,1.0,2.0,90,0.00,,---,0.00,VWS V14.01,2013-09-29 07:39:00,
2013-09-29 03:40:00,60.9,58.6,30.10,SW,234,0.0,1.0,92,0.00,,---,0.00,VWS V14.01,2013-09-29 07:40:00,
2013-09-29 03:44:00,60.9,57.6,30.09,WSW,242,0.0,3.0,89,0.00,,---,0.00,VWS V14.01,2013-09-29 07:44:00,
2013-09-29 03:45:00,61.1,58.5,30.10,SW,234,0.0,1.0,91,0.00,,---,0.00,VWS V14.01,2013-09-29 07:45:00,
2013-09-29 03:49:00,60.8,57.5,30.09,WSW,242,1.0,4.0,89,0.00,,---,0.00,VWS V14.01,2013-09-29 07:49:00,
2013-09-29 03:50:00,61.2,58.9,30.10,SW,224,1.0,1.0,92,0.00,,---,0.00,VWS V14.01,2013-09-29 07:50:00,
2013-09-29 03:54:00,60.7,57.4,30.09,WSW,244,1.0,2.0,89,0.00,,---,0.00,VWS V14.01,2013-09-29 07:54:00,
2013-09-29 03:55:00,60.9,58.6,30.10,SW,224,0.0,1.0,92,0.00,,---,0.00,VWS V14.01,2013-09-29 07:55:00,
2013-09-29 03:59:00,60.8,57.2,30.09,SW,230,2.0,2.0,88,0.00,,---,0.00,VWS V14.01,2013-09-29 07:59:00,
2013-09-29 04:00:00,60.8,58.5,30.10,SW,224,0.0,0.0,92,0.00,,---,0.00,VWS V14.01,2013-09-29 08:00:00,
2013-09-29 04:04:00,60.9,57.3,30.09,SW,232,2.0,3.0,88,0.00,,---,0.00,VWS V14.01,2013-09-29 08:04:00,
2013-09-29 04:05:00,60.7,58.4,30.10,SW,224,0.0,1.0,92,0.00,,---,0.00,VWS V14.01,2013-09-29 08:05:00,
2013-09-29 04:09:00,60.9,57.3,30.09,WSW,237,2.0,2.0,88,0.00,,---,0.00,VWS V14.01,2013-09-29 08:09:00,
2013-09-29 04:10:00,60.8,58.5,30.10,SW,225,0.0,1.0,92,0.00,,---,0.00,VWS V14.01,2013-09-29 08:10:00,
2013-09-29 04:14:00,61.2,57.3,30.08,West,259,1.0,2.0,87,0.00,,---,0.00,VWS V14.01,2013-09-29 08:14:00,
2013-09-29 04:15:00,60.9,58.0,30.10,WSW,249,0.0,3.0,90,0.00,,---,0.00,VWS V14.01,2013-09-29 08:15:00,
2013-09-29 04:19:00,61.4,57.2,30.09,SW,223,1.0,2.0,86,0.00,,---,0.00,VWS V14.01,2013-09-29 08:19:00,
2013-09-29 04:20:00,61.1,58.2,30.09,WSW,245,0.0,2.0,90,0.00,,---,0.00,VWS V14.01,2013-09-29 08:20:00,
2013-09-29 04:24:00,61.4,57.2,30.09,WSW,240,1.0,1.0,86,0.00,,---,0.00,VWS V14.01,2013-09-29 08:24:00,
2013-09-29 04:25:00,61.0,58.0,30.09,SSW,212,0.0,1.0,90,0.00,,---,0.00,VWS V14.01,2013-09-29 08:25:00,
2013-09-29 04:29:00,61.2,57.0,30.09,WSW,239,0.0,1.0,86,0.00,,---,0.00,VWS V14.01,2013-09-29 08:29:00,
2013-09-29 04:30:00,61.1,57.8,30.09,WNW,285,1.0,2.0,89,0.00,,---,0.00,VWS V14.01,2013-09-29 08:30:00,
2013-09-29 04:35:00,61.1,56.9,30.08,WSW,255,2.0,2.0,86,0.00,,---,0.00,VWS V14.01,2013-09-29 08:35:00,
2013-09-29 04:40:00,60.9,57.0,30.08,SW,235,3.0,3.0,87,0.00,,---,0.00,VWS V14.01,2013-09-29 08:40:00,
2013-09-29 04:45:00,60.7,57.1,30.08,SW,233,1.0,1.0,88,0.00,,---,0.00,VWS V14.01,2013-09-29 08:45:00,
2013-09-29 04:50:00,60.3,56.7,30.08,SW,232,1.0,1.0,88,0.00,,---,0.00,VWS V14.01,2013-09-29 08:50:00,
2013-09-29 04:55:00,60.5,56.6,30.08,WSW,250,0.0,0.0,87,0.00,,---,0.00,VWS V14.01,2013-09-29 08:55:00,
2013-09-29 05:00:00,60.1,56.5,30.08,WSW,257,0.0,0.0,88,0.00,,---,0.00,VWS V14.01,2013-09-29 09:00:00,
2013-09-29 05:05:00,59.7,56.5,30.08,WSW,257,0.0,0.0,89,0.00,,---,0.00,VWS V14.01,2013-09-29 09:05:00,
2013-09-29 05:10:00,59.4,55.8,30.08,West,270,0.0,0.0,88,0.00,,---,0.00,VWS V14.01,2013-09-29 09:10:00,
2013-09-29 05:15:00,59.3,56.4,30.08,West,270,0.0,0.0,90,0.00,,---,0.00,VWS V14.01,2013-09-29 09:15:00,
2013-09-29 05:20:00,59.1,56.2,30.08,West,269,0.0,1.0,90,0.00,,---,0.00,VWS V14.01,2013-09-29 09:20:00,
2013-09-29 05:25:00,58.5,55.9,30.08,West,269,0.0,0.0,91,0.00,,---,0.00,VWS V14.01,2013-09-29 09:25:00,
2013-09-29 05:30:00,57.9,55.6,30.08,West,269,0.0,0.0,92,0.00,,---,0.00,VWS V14.01,2013-09-29 09:30:00,
2013-09-29 05:35:00,57.5,55.5,30.08,West,269,0.0,0.0,93,0.00,,---,0.00,VWS V14.01,2013-09-29 09:35:00,
2013-09-29 05:40:00,57.1,55.1,30.08,West,269,0.0,0.0,93,0.00,,---,0.00,VWS V14.01,2013-09-29 09:40:00,
2013-09-29 05:45:00,56.6,54.6,30.08,West,269,0.0,0.0,93,0.00,,---,0.00,VWS V14.01,2013-09-29 09:45:00,
2013-09-29 05:50:00,56.2,54.8,30.08,West,270,0.0,0.0,95,0.00,,---,0.00,VWS V14.01,2013-09-29 09:50:00,
2013-09-29 05:55:00,55.9,54.5,30.08,West,270,0.0,0.0,95,0.00,,---,0.00,VWS V14.01,2013-09-29 09:55:00,
2013-09-29 06:00:00,55.6,54.2,30.08,West,270,0.0,0.0,95,0.00,,---,0.00,VWS V14.01,2013-09-29 10:00:00,
2013-09-29 06:05:00,55.4,54.3,30.08,West,270,0.0,0.0,96,0.00,,---,0.00,VWS V14.01,2013-09-29 10:05:00,
2013-09-29 06:10:00,55.2,54.4,30.09,West,270,0.0,0.0,97,0.00,,---,0.00,VWS V14.01,2013-09-29 10:10:00,
2013-09-29 06:15:00,55.0,54.2,30.09,West,270,0.0,0.0,97,0.00,,---,0.00,VWS V14.01,2013-09-29 10:15:00,
2013-09-29 06:20:00,54.9,54.1,30.09,West,270,0.0,0.0,97,0.00,,---,0.00,VWS V14.01,2013-09-29 10:20:00,
2013-09-29 06:25:00,54.8,54.0,30.09,West,270,0.0,0.0,97,0.00,,---,0.00,VWS V14.01,2013-09-29 10:25:00,
2013-09-29 06:30:00,54.9,54.3,30.10,WSW,247,0.0,0.0,98,0.00,,---,0.00,VWS V14.01,2013-09-29 10:30:00,
2013-09-29 06:35:00,55.1,54.5,30.10,WSW,247,0.0,0.0,98,0.00,,---,0.00,VWS V14.01,2013-09-29 10:35:00,
2013-09-29 06:40:00,54.9,54.1,30.10,WSW,247,0.0,0.0,97,0.00,,---,0.00,VWS V14.01,2013-09-29 10:40:00,
2013-09-29 06:45:00,54.9,54.3,30.10,WSW,247,0.0,0.0,98,0.00,,---,0.00,VWS V14.01,2013-09-29 10:45:00,
2013-09-29 06:50:00,54.9,54.1,30.10,WSW,247,0.0,0.0,97,0.00,,---,0.00,VWS V14.01,2013-09-29 10:50:00,
2013-09-29 06:55:00,54.9,54.3,30.10,WSW,247,0.0,0.0,98,0.00,,---,0.00,VWS V14.01,2013-09-29 10:55:00,
2013-09-29 07:00:00,54.9,54.3,30.10,WSW,247,0.0,0.0,98,0.00,,---,0.00,VWS V14.01,2013-09-29 11:00:00,
2013-09-29 07:05:00,55.1,54.5,30.10,WSW,247,0.0,0.0,98,0.00,,---,0.00,VWS V14.01,2013-09-29 11:05:00,
2013-09-29 07:10:00,55.1,54.5,30.10,WSW,247,0.0,0.0,98,0.00,,---,0.00,VWS V14.01,2013-09-29 11:10:00,
2013-09-29 07:15:00,55.4,54.6,30.10,West,268,0.0,0.0,97,0.00,,---,0.00,VWS V14.01,2013-09-29 11:15:00,
2013-09-29 07:20:00,54.9,54.1,30.09,West,270,0.0,0.0,97,0.00,,---,0.00,VWS V14.01,2013-09-29 11:20:00,
2013-09-29 07:21:00,55.1,54.0,30.10,West,268,0.0,0.0,96,0.00,,---,0.00,VWS V14.01,2013-09-29 11:21:00,
2013-09-29 07:25:00,54.8,54.0,30.09,West,270,0.0,0.0,97,0.00,,---,0.00,VWS V14.01,2013-09-29 11:25:00,
2013-09-29 07:26:00,54.9,54.1,30.10,West,268,0.0,1.0,97,0.00,,---,0.00,VWS V14.01,2013-09-29 11:26:00,
2013-09-29 07:30:00,54.9,54.3,30.09,WSW,247,0.0,0.0,98,0.00,,---,0.00,VWS V14.01,2013-09-29 11:30:00,
2013-09-29 07:31:00,54.7,53.6,30.11,West,268,0.0,0.0,96,0.00,,---,0.00,VWS V14.01,2013-09-29 11:31:00,
2013-09-29 07:35:00,55.1,54.5,30.10,WSW,247,0.0,0.0,98,0.00,,---,0.00,VWS V14.01,2013-09-29 11:35:00,
2013-09-29 07:36:00,54.5,53.7,30.10,West,268,0.0,0.0,97,0.00,,---,0.00,VWS V14.01,2013-09-29 11:36:00,
2013-09-29 07:40:00,55.0,54.2,30.10,WSW,247,0.0,0.0,97,0.00,,---,0.00,VWS V14.01,2013-09-29 11:40:00,
2013-09-29 07:41:00,54.5,54.0,30.10,West,268,0.0,0.0,98,0.00,,---,0.00,VWS V14.01,2013-09-29 11:41:00,
2013-09-29 07:45:00,54.9,54.1,30.10,WSW,247,0.0,0.0,97,0.00,,---,0.00,VWS V14.01,2013-09-29 11:45:00,
2013-09-29 07:46:00,54.5,54.0,30.10,West,268,0.0,0.0,98,0.00,,---,0.00,VWS V14.01,2013-09-29 11:46:00,
2013-09-29 07:50:00,54.9,54.1,30.10,WSW,247,0.0,0.0,97,0.00,,---,0.00,VWS V14.01,2013-09-29 11:50:00,
2013-09-29 07:51:00,54.2,53.4,30.11,West,268,0.0,0.0,97,0.00,,---,0.00,VWS V14.01,2013-09-29 11:51:00,
2013-09-29 07:55:00,54.9,54.3,30.10,WSW,247,0.0,0.0,98,0.00,,---,0.00,VWS V14.01,2013-09-29 11:55:00,
2013-09-29 07:56:00,54.2,53.7,30.11,West,269,0.0,0.0,98,0.00,,---,0.00,VWS V14.01,2013-09-29 11:56:00,
2013-09-29 08:00:00,54.9,54.1,30.10,WSW,247,0.0,0.0,97,0.00,,---,0.00,VWS V14.01,2013-09-29 12:00:00,
2013-09-29 08:01:00,54.3,53.8,30.11,West,268,0.0,0.0,98,0.00,,---,0.00,VWS V14.01,2013-09-29 12:01:00,
2013-09-29 08:05:00,55.4,54.3,30.08,West,270,0.0,0.0,96,0.00,,---,0.00,VWS V14.01,2013-09-29 12:05:00,
2013-09-29 08:06:00,54.5,54.0,30.11,West,268,0.0,0.0,98,0.00,,---,0.00,VWS V14.01,2013-09-29 12:06:00,
2013-09-29 08:10:00,55.2,54.1,30.09,West,269,0.0,0.0,96,0.00,,---,0.00,VWS V14.01,2013-09-29 12:10:00,
2013-09-29 08:11:00,55.1,54.5,30.11,SW,219,0.0,0.0,98,0.00,,---,0.00,VWS V14.01,2013-09-29 12:11:00,
2013-09-29 08:15:00,55.1,54.3,30.09,West,270,0.0,0.0,97,0.00,,---,0.00,VWS V14.01,2013-09-29 12:15:00,
2013-09-29 08:16:00,55.3,54.2,30.11,SW,219,0.0,0.0,96,0.00,,---,0.00,VWS V14.01,2013-09-29 12:16:00,
2013-09-29 08:20:00,55.2,54.1,30.10,West,268,0.0,0.0,96,0.00,,---,0.00,VWS V14.01,2013-09-29 12:20:00,
2013-09-29 08:21:00,55.6,54.8,30.11,SW,219,0.0,0.0,97,0.00,,---,0.00,VWS V14.01,2013-09-29 12:21:00,
2013-09-29 08:25:00,54.9,53.8,30.10,West,269,0.0,0.0,96,0.00,,---,0.00,VWS V14.01,2013-09-29 12:25:00,
2013-09-29 08:26:00,56.4,55.6,30.11,SW,219,0.0,0.0,97,0.00,,---,0.00,VWS V14.01,2013-09-29 12:26:00,
2013-09-29 08:30:00,54.8,53.7,30.10,West,268,0.0,1.0,96,0.00,,---,0.00,VWS V14.01,2013-09-29 12:30:00,
2013-09-29 08:31:00,57.1,56.0,30.11,SW,219,0.0,0.0,96,0.00,,---,0.00,VWS V14.01,2013-09-29 12:31:00,
2013-09-29 08:35:00,54.6,53.8,30.10,West,268,0.0,0.0,97,0.00,,---,0.00,VWS V14.01,2013-09-29 12:35:00,
2013-09-29 08:36:00,57.2,55.8,30.10,SW,219,0.0,0.0,95,0.00,,---,0.00,VWS V14.01,2013-09-29 12:36:00,
2013-09-29 08:40:00,54.5,54.0,30.10,West,268,0.0,0.0,98,0.00,,---,0.00,VWS V14.01,2013-09-29 12:40:00,
2013-09-29 08:41:00,57.6,56.2,30.10,SW,219,0.0,0.0,95,0.00,,---,0.00,VWS V14.01,2013-09-29 12:41:00,
2013-09-29 08:45:00,54.5,54.0,30.10,West,269,0.0,0.0,98,0.00,,---,0.00,VWS V14.01,2013-09-29 12:45:00,
2013-09-29 08:46:00,58.3,56.9,30.10,SW,219,0.0,0.0,95,0.00,,---,0.00,VWS V14.01,2013-09-29 12:46:00,
2013-09-29 08:50:00,54.2,53.4,30.10,West,268,0.0,0.0,97,0.00,,---,0.00,VWS V14.01,2013-09-29 12:50:00,
2013-09-29 08:51:00,59.5,57.2,30.10,SSW,212,0.0,1.0,92,0.00,,---,0.00,VWS V14.01,2013-09-29 12:51:00,
2013-09-29 08:55:00,54.2,53.7,30.11,West,268,0.0,0.0,98,0.00,,---,0.00,VWS V14.01,2013-09-29 12:55:00,
2013-09-29 08:56:00,60.5,57.6,30.10,SW,217,1.0,2.0,90,0.00,,---,0.00,VWS V14.01,2013-09-29 12:56:00,
2013-09-29 09:00:00,54.3,53.8,30.11,West,268,0.0,0.0,98,0.00,,---,0.00,VWS V14.01,2013-09-29 13:00:00,
2013-09-29 09:01:00,61.3,57.4,30.11,SE,143,0.0,2.0,87,0.00,,---,0.00,VWS V14.01,2013-09-29 13:01:00,
2013-09-29 09:05:00,54.4,53.8,30.11,West,268,0.0,0.0,98,0.00,,---,0.00,VWS V14.01,2013-09-29 13:05:00,
2013-09-29 09:06:00,62.0,57.5,30.10,SSE,159,0.0,2.0,85,0.00,,---,0.00,VWS V14.01,2013-09-29 13:06:00,
2013-09-29 09:10:00,54.9,54.3,30.11,West,269,0.0,1.0,98,0.00,,---,0.00,VWS V14.01,2013-09-29 13:10:00,
2013-09-29 09:11:00,62.6,57.4,30.10,SE,129,2.0,5.0,83,0.00,,---,0.00,VWS V14.01,2013-09-29 13:11:00,
2013-09-29 09:15:00,55.4,54.6,30.11,SW,219,0.0,0.0,97,0.00,,---,0.00,VWS V14.01,2013-09-29 13:15:00,
2013-09-29 09:16:00,62.8,57.6,30.10,South,186,1.0,3.0,83,0.00,,---,0.00,VWS V14.01,2013-09-29 13:16:00,
2013-09-29 09:20:00,55.5,54.7,30.11,SW,219,0.0,0.0,97,0.00,,---,0.00,VWS V14.01,2013-09-29 13:20:00,
2013-09-29 09:21:00,62.5,56.9,30.11,WSW,247,5.0,5.0,82,0.00,,---,0.00,VWS V14.01,2013-09-29 13:21:00,
2013-09-29 09:25:00,56.1,55.3,30.11,SW,219,0.0,0.0,97,0.00,,---,0.00,VWS V14.01,2013-09-29 13:25:00,
2013-09-29 09:26:00,62.5,56.9,30.11,WSW,241,3.0,6.0,82,0.00,,---,0.00,VWS V14.01,2013-09-29 13:26:00,
2013-09-29 09:30:00,57.0,55.9,30.11,SW,219,0.0,0.0,96,0.00,,---,0.00,VWS V14.01,2013-09-29 13:30:00,
2013-09-29 09:31:00,63.0,57.1,30.11,SSW,195,0.0,4.0,81,0.00,,---,0.00,VWS V14.01,2013-09-29 13:31:00,
2013-09-29 09:35:00,57.2,55.5,30.10,SW,219,0.0,0.0,94,0.00,,---,0.00,VWS V14.01,2013-09-29 13:35:00,
2013-09-29 09:36:00,63.8,57.9,30.11,West,273,2.0,3.0,81,0.00,,---,0.00,VWS V14.01,2013-09-29 13:36:00,
2013-09-29 09:40:00,57.4,56.0,30.10,SW,219,0.0,0.0,95,0.00,,---,0.00,VWS V14.01,2013-09-29 13:40:00,
2013-09-29 09:41:00,63.8,57.2,30.11,WSW,242,4.0,6.0,79,0.00,,---,0.00,VWS V14.01,2013-09-29 13:41:00,
2013-09-29 09:45:00,58.0,56.3,30.10,SW,219,0.0,0.0,94,0.00,,---,0.00,VWS V14.01,2013-09-29 13:45:00,
2013-09-29 09:46:00,64.1,57.1,30.11,WSW,249,2.0,6.0,78,0.00,,---,0.00,VWS V14.01,2013-09-29 13:46:00,
2013-09-29 09:50:00,59.1,57.7,30.10,SW,219,0.0,1.0,95,0.00,,---,0.00,VWS V14.01,2013-09-29 13:50:00,
2013-09-29 09:51:00,64.3,57.3,30.11,SSW,194,4.0,5.0,78,0.00,,---,0.00,VWS V14.01,2013-09-29 13:51:00,
2013-09-29 09:55:00,60.2,57.9,30.10,SSW,205,1.0,1.0,92,0.00,,---,0.00,VWS V14.01,2013-09-29 13:55:00,
2013-09-29 09:56:00,64.5,56.8,30.11,WSW,248,2.0,5.0,76,0.00,,---,0.00,VWS V14.01,2013-09-29 13:56:00,
2013-09-29 10:00:00,61.1,57.2,30.10,SW,230,0.0,2.0,87,0.00,,---,0.00,VWS V14.01,2013-09-29 14:00:00,
2013-09-29 10:01:00,64.7,57.3,30.11,West,262,3.0,3.0,77,0.00,,---,0.00,VWS V14.01,2013-09-29 14:01:00,
2013-09-29 10:05:00,61.7,57.2,30.10,ESE,118,0.0,4.0,85,0.00,,---,0.00,VWS V14.01,2013-09-29 14:05:00,
2013-09-29 10:07:00,65.0,56.5,30.11,SSW,209,4.0,8.0,74,0.00,,---,0.00,VWS V14.01,2013-09-29 14:07:00,
2013-09-29 10:10:00,62.5,57.6,30.10,WSW,240,5.0,5.0,84,0.00,,---,0.00,VWS V14.01,2013-09-29 14:10:00,
2013-09-29 10:12:00,65.2,56.3,30.11,SSE,147,4.0,7.0,73,0.00,,---,0.00,VWS V14.01,2013-09-29 14:12:00,
2013-09-29 10:15:00,62.7,57.1,30.10,SSW,205,3.0,5.0,82,0.00,,---,0.00,VWS V14.01,2013-09-29 14:15:00,
2013-09-29 10:17:00,65.8,56.9,30.11,WSW,248,2.0,6.0,73,0.00,,---,0.00,VWS V14.01,2013-09-29 14:17:00,
2013-09-29 10:20:00,62.7,57.1,30.11,West,260,3.0,5.0,82,0.00,,---,0.00,VWS V14.01,2013-09-29 14:20:00,
2013-09-29 10:22:00,66.1,57.2,30.11,WSW,252,2.0,4.0,73,0.00,,---,0.00,VWS V14.01,2013-09-29 14:22:00,
2013-09-29 10:25:00,62.5,57.3,30.11,ESE,122,1.0,5.0,83,0.00,,---,0.00,VWS V14.01,2013-09-29 14:25:00,
2013-09-29 10:27:00,65.8,56.9,30.11,SE,126,3.0,6.0,73,0.00,,---,0.00,VWS V14.01,2013-09-29 14:27:00,
2013-09-29 10:30:00,62.7,57.1,30.11,SSE,166,2.0,6.0,82,0.00,,---,0.00,VWS V14.01,2013-09-29 14:30:00,
2013-09-29 10:32:00,65.0,57.3,30.11,West,266,2.0,3.0,76,0.00,,---,0.00,VWS V14.01,2013-09-29 14:32:00,
2013-09-29 10:35:00,63.4,57.5,30.11,SSW,206,0.0,4.0,81,0.00,,---,0.00,VWS V14.01,2013-09-29 14:35:00,
2013-09-29 10:37:00,65.5,57.7,30.11,SSE,147,1.0,3.0,76,0.00,,---,0.00,VWS V14.01,2013-09-29 14:37:00,
2013-09-29 10:40:00,63.9,57.3,30.11,WSW,255,4.0,6.0,79,0.00,,---,0.00,VWS V14.01,2013-09-29 14:40:00,
2013-09-29 10:42:00,66.2,57.7,30.11,South,184,3.0,7.0,74,0.00,,---,0.00,VWS V14.01,2013-09-29 14:42:00,
2013-09-29 10:45:00,64.0,57.4,30.11,WSW,246,2.0,6.0,79,0.00,,---,0.00,VWS V14.01,2013-09-29 14:45:00,
2013-09-29 10:47:00,66.3,56.6,30.11,SW,228,3.0,7.0,71,0.00,,---,0.00,VWS V14.01,2013-09-29 14:47:00,
2013-09-29 10:50:00,64.2,57.2,30.11,West,259,2.0,7.0,78,0.00,,---,0.00,VWS V14.01,2013-09-29 14:50:00,
2013-09-29 10:52:00,66.4,57.5,30.11,SW,233,2.0,5.0,73,0.00,,---,0.00,VWS V14.01,2013-09-29 14:52:00,
2013-09-29 10:55:00,64.5,56.4,30.11,SSE,150,5.0,8.0,75,0.00,,---,0.00,VWS V14.01,2013-09-29 14:55:00,
2013-09-29 10:57:00,67.0,57.3,30.11,SSW,195,1.0,4.0,71,0.00,,---,0.00,VWS V14.01,2013-09-29 14:57:00,
2013-09-29 11:00:00,64.5,56.8,30.11,SSE,157,1.0,6.0,76,0.00,,---,0.00,VWS V14.01,2013-09-29 15:00:00,
2013-09-29 11:02:00,67.5,56.6,30.11,SSE,167,2.0,6.0,68,0.00,,---,0.00,VWS V14.01,2013-09-29 15:02:00,
2013-09-29 11:05:00,64.8,57.1,30.11,WSW,248,8.0,8.0,76,0.00,,---,0.00,VWS V14.01,2013-09-29 15:05:00,
2013-09-29 11:07:00,67.8,56.5,30.11,South,176,8.0,9.0,67,0.00,,---,0.00,VWS V14.01,2013-09-29 15:07:00,
2013-09-29 11:10:00,65.1,57.0,30.11,SE,131,3.0,8.0,75,0.00,,---,0.00,VWS V14.01,2013-09-29 15:10:00,
2013-09-29 11:12:00,68.1,57.6,30.11,ESE,123,2.0,5.0,69,0.00,,---,0.00,VWS V14.01,2013-09-29 15:12:00,
2013-09-29 11:15:00,65.6,57.1,30.11,SW,233,3.0,7.0,74,0.00,,---,0.00,VWS V14.01,2013-09-29 15:15:00,
2013-09-29 11:17:00,68.8,57.0,30.11,WSW,247,3.0,8.0,66,0.00,,---,0.00,VWS V14.01,2013-09-29 15:17:00,
2013-09-29 11:20:00,66.1,57.2,30.11,SSE,153,1.0,6.0,73,0.00,,---,0.00,VWS V14.01,2013-09-29 15:20:00,
2013-09-29 11:22:00,68.6,56.8,30.10,South,169,7.0,8.0,66,0.00,,---,0.00,VWS V14.01,2013-09-29 15:22:00,
2013-09-29 11:25:00,66.0,57.1,30.11,WSW,246,0.0,4.0,73,0.00,,---,0.00,VWS V14.01,2013-09-29 15:25:00,
2013-09-29 11:27:00,68.6,57.6,30.10,SW,215,5.0,7.0,68,0.00,,---,0.00,VWS V14.01,2013-09-29 15:27:00,
2013-09-29 11:30:00,65.2,56.3,30.11,WNW,289,1.0,7.0,73,0.00,,---,0.00,VWS V14.01,2013-09-29 15:30:00,
2013-09-29 11:32:00,68.9,57.1,30.10,SSE,162,1.0,6.0,66,0.00,,---,0.00,VWS V14.01,2013-09-29 15:32:00,
2013-09-29 11:35:00,65.1,57.4,30.11,SW,233,1.0,4.0,76,0.00,,---,0.00,VWS V14.01,2013-09-29 15:35:00,
2013-09-29 11:37:00,69.6,57.3,30.10,SSW,203,6.0,8.0,65,0.00,,---,0.00,VWS V14.01,2013-09-29 15:37:00,
2013-09-29 11:40:00,66.0,57.5,30.11,South,181,7.0,7.0,74,0.00,,---,0.00,VWS V14.01,2013-09-29 15:40:00,
2013-09-29 11:42:00,69.6,56.0,30.10,SSW,210,5.0,8.0,62,0.00,,---,0.00,VWS V14.01,2013-09-29 15:42:00,
2013-09-29 11:45:00,66.2,56.9,30.11,West,266,1.0,7.0,72,0.00,,---,0.00,VWS V14.01,2013-09-29 15:45:00,
2013-09-29 11:47:00,69.6,56.5,30.10,ESE,122,4.0,5.0,63,0.00,,---,0.00,VWS V14.01,2013-09-29 15:47:00,
2013-09-29 11:50:00,66.4,56.7,30.11,West,266,3.0,7.0,71,0.00,,---,0.00,VWS V14.01,2013-09-29 15:50:00,
2013-09-29 11:52:00,69.8,56.7,30.10,SSE,168,5.0,8.0,63,0.00,,---,0.00,VWS V14.01,2013-09-29 15:52:00,
2013-09-29 11:55:00,66.7,57.0,30.11,SSW,199,2.0,5.0,71,0.00,,---,0.00,VWS V14.01,2013-09-29 15:55:00,
2013-09-29 11:57:00,69.3,56.2,30.10,ENE,64,0.0,7.0,63,0.00,,---,0.00,VWS V14.01,2013-09-29 15:57:00,
2013-09-29 12:00:00,67.4,56.9,30.11,SW,224,6.0,7.0,69,0.00,,---,0.00,VWS V14.01,2013-09-29 16:00:00,
2013-09-29 12:02:00,70.0,57.3,30.10,West,277,3.0,6.0,64,0.00,,---,0.00,VWS V14.01,2013-09-29 16:02:00,
2013-09-29 12:05:00,67.9,56.5,30.11,SSE,153,4.0,7.0,67,0.00,,---,0.00,VWS V14.01,2013-09-29 16:05:00,
2013-09-29 12:07:00,70.7,57.1,30.10,SSE,158,2.0,5.0,62,0.00,,---,0.00,VWS V14.01,2013-09-29 16:07:00,
2013-09-29 12:10:00,67.9,56.1,30.11,South,171,3.0,9.0,66,0.00,,---,0.00,VWS V14.01,2013-09-29 16:10:00,
2013-09-29 12:12:00,71.5,56.9,30.09,ENE,66,0.0,5.0,60,0.00,,---,0.00,VWS V14.01,2013-09-29 16:12:00,
2013-09-29 12:15:00,68.5,57.5,30.11,South,176,1.0,8.0,68,0.00,,---,0.00,VWS V14.01,2013-09-29 16:15:00,
2013-09-29 12:17:00,71.6,56.5,30.09,SSW,213,5.0,9.0,59,0.00,,---,0.00,VWS V14.01,2013-09-29 16:17:00,
2013-09-29 12:20:00,68.7,56.9,30.11,WSW,245,5.0,8.0,66,0.00,,---,0.00,VWS V14.01,2013-09-29 16:20:00,
2013-09-29 12:22:00,71.4,56.8,30.09,SW,214,5.0,9.0,60,0.00,,---,0.00,VWS V14.01,2013-09-29 16:22:00,
2013-09-29 12:25:00,68.5,56.3,30.10,SW,221,6.0,8.0,65,0.00,,---,0.00,VWS V14.01,2013-09-29 16:25:00,
2013-09-29 12:27:00,71.1,56.5,30.09,ESE,120,2.0,4.0,60,0.00,,---,0.00,VWS V14.01,2013-09-29 16:27:00,
2013-09-29 12:30:00,68.8,56.1,30.10,South,172,3.0,8.0,64,0.00,,---,0.00,VWS V14.01,2013-09-29 16:30:00,
2013-09-29 12:32:00,71.4,56.3,30.09,WSW,248,1.0,4.0,59,0.00,,---,0.00,VWS V14.01,2013-09-29 16:32:00,
2013-09-29 12:35:00,69.2,57.0,30.10,South,169,1.0,7.0,65,0.00,,---,0.00,VWS V14.01,2013-09-29 16:35:00,
2013-09-29 12:37:00,72.0,56.9,30.09,SW,214,8.0,8.0,59,0.00,,---,0.00,VWS V14.01,2013-09-29 16:37:00,
2013-09-29 12:40:00,69.8,57.1,30.10,SW,223,2.0,8.0,64,0.00,,---,0.00,VWS V14.01,2013-09-29 16:40:00,
2013-09-29 12:42:00,72.2,57.6,30.09,WSW,249,0.0,1.0,60,0.00,,---,0.00,VWS V14.01,2013-09-29 16:42:00,
2013-09-29 12:45:00,69.4,56.3,30.10,SW,217,3.0,8.0,63,0.00,,---,0.00,VWS V14.01,2013-09-29 16:45:00,
2013-09-29 12:47:00,71.8,56.7,30.08,SE,134,2.0,5.0,59,0.00,,---,0.00,VWS V14.01,2013-09-29 16:47:00,
2013-09-29 12:50:00,69.6,56.5,30.10,East,91,1.0,7.0,63,0.00,,---,0.00,VWS V14.01,2013-09-29 16:50:00,
2013-09-29 12:52:00,71.8,57.2,30.08,WNW,285,1.0,4.0,60,0.00,,---,0.00,VWS V14.01,2013-09-29 16:52:00,
2013-09-29 12:55:00,69.6,56.5,30.10,South,175,3.0,8.0,63,0.00,,---,0.00,VWS V14.01,2013-09-29 16:55:00,
2013-09-29 12:57:00,72.1,57.5,30.08,SE,131,2.0,5.0,60,0.00,,---,0.00,VWS V14.01,2013-09-29 16:57:00,
2013-09-29 13:00:00,69.4,56.7,30.10,ESE,115,1.0,7.0,64,0.00,,---,0.00,VWS V14.01,2013-09-29 17:00:00,
2013-09-29 13:02:00,72.7,57.6,30.08,ENE,75,4.0,5.0,59,0.00,,---,0.00,VWS V14.01,2013-09-29 17:02:00,
2013-09-29 13:05:00,70.3,56.7,30.10,SSE,162,2.0,6.0,62,0.00,,---,0.00,VWS V14.01,2013-09-29 17:05:00,
2013-09-29 13:07:00,73.2,57.5,30.08,East,96,3.0,6.0,58,0.00,,---,0.00,VWS V14.01,2013-09-29 17:07:00,
2013-09-29 13:10:00,71.3,58.5,30.10,SW,229,2.0,8.0,64,0.00,,---,0.00,VWS V14.01,2013-09-29 17:10:00,
2013-09-29 13:12:00,73.3,57.2,30.08,ENE,76,2.0,7.0,57,0.00,,---,0.00,VWS V14.01,2013-09-29 17:12:00,
2013-09-29 13:15:00,71.7,57.1,30.09,SSW,209,6.0,8.0,60,0.00,,---,0.00,VWS V14.01,2013-09-29 17:15:00,
2013-09-29 13:17:00,73.3,58.1,30.07,ENE,64,2.0,2.0,59,0.00,,---,0.00,VWS V14.01,2013-09-29 17:17:00,
2013-09-29 13:20:00,71.5,56.4,30.09,SSW,207,7.0,9.0,59,0.00,,---,0.00,VWS V14.01,2013-09-29 17:20:00,
2013-09-29 13:22:00,74.1,57.9,30.07,SW,234,4.0,7.0,57,0.00,,---,0.00,VWS V14.01,2013-09-29 17:22:00,
2013-09-29 13:25:00,71.1,56.5,30.09,SSW,197,2.0,9.0,60,0.00,,---,0.00,VWS V14.01,2013-09-29 17:25:00,
2013-09-29 13:28:00,73.9,56.7,30.07,SSE,156,4.0,7.0,55,0.00,,---,0.00,VWS V14.01,2013-09-29 17:28:00,
2013-09-29 13:30:00,71.2,57.1,30.09,East,88,1.0,4.0,61,0.00,,---,0.00,VWS V14.01,2013-09-29 17:30:00,
2013-09-29 13:33:00,74.0,57.3,30.07,SSW,197,6.0,9.0,56,0.00,,---,0.00,VWS V14.01,2013-09-29 17:33:00,
2013-09-29 13:35:00,71.6,57.0,30.09,NNE,31,1.0,4.0,60,0.00,,---,0.00,VWS V14.01,2013-09-29 17:35:00,
2013-09-29 13:38:00,73.5,56.9,30.06,SW,226,4.0,6.0,56,0.00,,---,0.00,VWS V14.01,2013-09-29 17:38:00,
2013-09-29 13:40:00,71.8,57.2,30.09,East,95,1.0,8.0,60,0.00,,---,0.00,VWS V14.01,2013-09-29 17:40:00,
2013-09-29 13:43:00,73.6,57.0,30.06,WSW,251,2.0,5.0,56,0.00,,---,0.00,VWS V14.01,2013-09-29 17:43:00,
2013-09-29 13:45:00,72.3,57.7,30.09,West,273,4.0,7.0,60,0.00,,---,0.00,VWS V14.01,2013-09-29 17:45:00,
2013-09-29 13:48:00,73.3,57.2,30.06,South,184,0.0,3.0,57,0.00,,---,0.00,VWS V14.01,2013-09-29 17:48:00,
2013-09-29 13:50:00,71.7,56.6,30.08,SSW,211,2.0,5.0,59,0.00,,---,0.00,VWS V14.01,2013-09-29 17:50:00,
2013-09-29 13:53:00,73.4,57.3,30.06,SSE,158,2.0,5.0,57,0.00,,---,0.00,VWS V14.01,2013-09-29 17:53:00,
2013-09-29 13:55:00,71.8,57.2,30.09,SW,235,1.0,6.0,60,0.00,,---,0.00,VWS V14.01,2013-09-29 17:55:00,
2013-09-29 13:58:00,73.9,58.2,30.06,SW,231,2.0,4.0,58,0.00,,---,0.00,VWS V14.01,2013-09-29 17:58:00,
2013-09-29 14:00:00,72.2,57.1,30.08,SE,141,3.0,6.0,59,0.00,,---,0.00,VWS V14.01,2013-09-29 18:00:00,
2013-09-29 14:03:00,74.1,57.9,30.05,West,269,2.0,6.0,57,0.00,,---,0.00,VWS V14.01,2013-09-29 18:03:00,
2013-09-29 14:05:00,73.0,58.3,30.08,SW,229,3.0,6.0,60,0.00,,---,0.00,VWS V14.01,2013-09-29 18:05:00,
2013-09-29 14:08:00,74.4,57.2,30.05,ESE,122,2.0,6.0,55,0.00,,---,0.00,VWS V14.01,2013-09-29 18:08:00,
2013-09-29 14:10:00,73.2,57.5,30.08,SE,133,1.0,6.0,58,0.00,,---,0.00,VWS V14.01,2013-09-29 18:10:00,
2013-09-29 14:13:00,74.2,56.5,30.05,SSW,209,5.0,6.0,54,0.00,,---,0.00,VWS V14.01,2013-09-29 18:13:00,
2013-09-29 14:15:00,73.3,56.7,30.08,NE,39,1.0,7.0,56,0.00,,---,0.00,VWS V14.01,2013-09-29 18:15:00,
2013-09-29 14:18:00,74.6,57.4,30.04,South,188,0.0,5.0,55,0.00,,---,0.00,VWS V14.01,2013-09-29 18:18:00,
2013-09-29 14:20:00,73.5,57.8,30.07,SE,137,2.0,4.0,58,0.00,,---,0.00,VWS V14.01,2013-09-29 18:20:00,
2013-09-29 14:23:00,75.4,57.1,30.04,SSE,168,0.0,2.0,53,0.00,,---,0.00,VWS V14.01,2013-09-29 18:23:00,
2013-09-29 14:25:00,74.2,58.0,30.07,West,279,1.0,7.0,57,0.00,,---,0.00,VWS V14.01,2013-09-29 18:25:00,
2013-09-29 14:28:00,76.2,56.8,30.04,NW,309,2.0,4.0,51,0.00,,---,0.00,VWS V14.01,2013-09-29 18:28:00,
2013-09-29 14:30:00,73.8,58.1,30.07,SE,144,3.0,7.0,58,0.00,,---,0.00,VWS V14.01,2013-09-29 18:30:00,
2013-09-29 14:33:00,76.2,56.8,30.04,WSW,243,0.0,1.0,51,0.00,,---,0.00,VWS V14.01,2013-09-29 18:33:00,
2013-09-29 14:35:00,73.9,56.7,30.07,WNW,287,2.0,10.0,55,0.00,,---,0.00,VWS V14.01,2013-09-29 18:35:00,
2013-09-29 14:38:00,76.1,58.3,30.03,West,272,1.0,5.0,54,0.00,,---,0.00,VWS V14.01,2013-09-29 18:38:00,
2013-09-29 14:40:00,73.4,57.7,30.06,SW,224,2.0,6.0,58,0.00,,---,0.00,VWS V14.01,2013-09-29 18:40:00,
2013-09-29 14:43:00,75.9,57.6,30.03,NE,44,1.0,2.0,53,0.00,,---,0.00,VWS V14.01,2013-09-29 18:43:00,
2013-09-29 14:45:00,73.3,57.2,30.06,WSW,255,2.0,5.0,57,0.00,,---,0.00,VWS V14.01,2013-09-29 18:45:00,
2013-09-29 14:48:00,76.0,58.2,30.03,NNE,30,2.0,2.0,54,0.00,,---,0.00,VWS V14.01,2013-09-29 18:48:00,
2013-09-29 14:50:00,73.5,57.3,30.06,WSW,243,1.0,4.0,57,0.00,,---,0.00,VWS V14.01,2013-09-29 18:50:00,
2013-09-29 14:53:00,75.6,58.3,30.03,SSW,196,2.0,2.0,55,0.00,,---,0.00,VWS V14.01,2013-09-29 18:53:00,
2013-09-29 14:55:00,73.4,57.7,30.06,SSW,192,0.0,5.0,58,0.00,,---,0.00,VWS V14.01,2013-09-29 18:55:00,
2013-09-29 14:58:00,75.6,57.3,30.03,WSW,248,0.0,5.0,53,0.00,,---,0.00,VWS V14.01,2013-09-29 18:58:00,
2013-09-29 15:00:00,74.1,57.4,30.06,SW,234,3.0,4.0,56,0.00,,---,0.00,VWS V14.01,2013-09-29 19:00:00,
2013-09-29 15:03:00,74.8,56.5,30.03,WNW,286,1.0,2.0,53,0.00,,---,0.00,VWS V14.01,2013-09-29 19:03:00,
2013-09-29 15:05:00,74.3,57.1,30.05,WNW,282,0.0,6.0,55,0.00,,---,0.00,VWS V14.01,2013-09-29 19:05:00,
2013-09-29 15:08:00,74.6,57.9,30.03,NE,46,0.0,1.0,56,0.00,,---,0.00,VWS V14.01,2013-09-29 19:08:00,
2013-09-29 15:10:00,74.4,57.7,30.05,ESE,109,4.0,6.0,56,0.00,,---,0.00,VWS V14.01,2013-09-29 19:10:00,
2013-09-29 15:13:00,75.0,57.8,30.02,WSW,242,1.0,2.0,55,0.00,,---,0.00,VWS V14.01,2013-09-29 19:13:00,
2013-09-29 15:15:00,74.1,56.4,30.04,WNW,287,0.0,6.0,54,0.00,,---,0.00,VWS V14.01,2013-09-29 19:15:00,
2013-09-29 15:18:00,73.9,57.2,30.02,SSE,155,0.0,4.0,56,0.00,,---,0.00,VWS V14.01,2013-09-29 19:18:00,
2013-09-29 15:20:00,74.7,57.5,30.04,East,95,1.0,5.0,55,0.00,,---,0.00,VWS V14.01,2013-09-29 19:20:00,
2013-09-29 15:23:00,74.2,57.5,30.02,West,276,1.0,3.0,56,0.00,,---,0.00,VWS V14.01,2013-09-29 19:23:00,
2013-09-29 15:25:00,75.9,58.1,30.04,WNW,302,1.0,2.0,54,0.00,,---,0.00,VWS V14.01,2013-09-29 19:25:00,
2013-09-29 15:28:00,74.6,57.4,30.01,WNW,294,3.0,3.0,55,0.00,,---,0.00,VWS V14.01,2013-09-29 19:28:00,
2013-09-29 15:30:00,76.2,57.3,30.04,WSW,243,0.0,4.0,52,0.00,,---,0.00,VWS V14.01,2013-09-29 19:30:00,
2013-09-29 15:33:00,74.3,58.6,30.01,East,89,1.0,3.0,58,0.00,,---,0.00,VWS V14.01,2013-09-29 19:33:00,
2013-09-29 15:35:00,76.2,56.8,30.04,SW,214,2.0,3.0,51,0.00,,---,0.00,VWS V14.01,2013-09-29 19:35:00,
2013-09-29 15:38:00,73.7,57.5,30.01,ENE,73,2.0,3.0,57,0.00,,---,0.00,VWS V14.01,2013-09-29 19:38:00,
2013-09-29 15:40:00,76.2,56.8,30.03,SSW,210,0.0,5.0,51,0.00,,---,0.00,VWS V14.01,2013-09-29 19:40:00,
2013-09-29 15:43:00,73.4,59.2,30.01,East,96,0.0,2.0,61,0.00,,---,0.00,VWS V14.01,2013-09-29 19:43:00,
2013-09-29 15:45:00,76.1,57.8,30.03,SSE,167,0.0,2.0,53,0.00,,---,0.00,VWS V14.01,2013-09-29 19:45:00,
2013-09-29 15:48:00,73.0,57.4,30.01,ESE,109,2.0,2.0,58,0.00,,---,0.00,VWS V14.01,2013-09-29 19:48:00,
2013-09-29 15:50:00,75.8,57.5,30.03,NE,49,0.0,2.0,53,0.00,,---,0.00,VWS V14.01,2013-09-29 19:50:00,
2013-09-29 15:53:00,73.1,58.9,30.01,ENE,76,1.0,2.0,61,0.00,,---,0.00,VWS V14.01,2013-09-29 19:53:00,
2013-09-29 15:55:00,75.6,57.8,30.03,South,178,0.0,3.0,54,0.00,,---,0.00,VWS V14.01,2013-09-29 19:55:00,
2013-09-29 15:58:00,73.1,57.5,30.01,East,83,2.0,3.0,58,0.00,,---,0.00,VWS V14.01,2013-09-29 19:58:00,
2013-09-29 16:00:00,75.3,57.0,30.03,West,268,2.0,5.0,53,0.00,,---,0.00,VWS V14.01,2013-09-29 20:00:00,
2013-09-29 16:03:00,72.7,57.1,30.00,East,98,1.0,3.0,58,0.00,,---,0.00,VWS V14.01,2013-09-29 20:03:00,
2013-09-29 16:05:00,74.5,56.3,30.03,NW,311,0.0,2.0,53,0.00,,---,0.00,VWS V14.01,2013-09-29 20:05:00,
2013-09-29 16:08:00,72.8,57.2,30.00,SSE,148,0.0,1.0,58,0.00,,---,0.00,VWS V14.01,2013-09-29 20:08:00,
2013-09-29 16:10:00,74.7,57.0,30.03,West,276,0.0,1.0,54,0.00,,---,0.00,VWS V14.01,2013-09-29 20:10:00,
2013-09-29 16:13:00,73.9,57.2,30.00,West,262,1.0,2.0,56,0.00,,---,0.00,VWS V14.01,2013-09-29 20:13:00,
2013-09-29 16:15:00,74.9,57.7,30.02,West,262,2.0,3.0,55,0.00,,---,0.00,VWS V14.01,2013-09-29 20:15:00,
2013-09-29 16:18:00,74.2,57.5,30.01,WNW,287,3.0,3.0,56,0.00,,---,0.00,VWS V14.01,2013-09-29 20:18:00,
2013-09-29 16:20:00,73.9,57.2,30.02,SSW,200,0.0,4.0,56,0.00,,---,0.00,VWS V14.01,2013-09-29 20:20:00,
2013-09-29 16:23:00,74.2,58.0,30.00,SW,232,0.0,1.0,57,0.00,,---,0.00,VWS V14.01,2013-09-29 20:23:00,
2013-09-29 16:25:00,74.3,56.6,30.02,NW,326,1.0,3.0,54,0.00,,---,0.00,VWS V14.01,2013-09-29 20:25:00,
2013-09-29 16:28:00,74.5,56.8,30.00,WSW,255,2.0,5.0,54,0.00,,---,0.00,VWS V14.01,2013-09-29 20:28:00,
2013-09-29 16:30:00,74.5,57.8,30.01,West,261,2.0,3.0,56,0.00,,---,0.00,VWS V14.01,2013-09-29 20:30:00,
2013-09-29 16:33:00,74.8,58.1,30.00,SSW,207,3.0,3.0,56,0.00,,---,0.00,VWS V14.01,2013-09-29 20:33:00,
2013-09-29 16:35:00,74.2,58.0,30.01,ESE,107,1.0,3.0,57,0.00,,---,0.00,VWS V14.01,2013-09-29 20:35:00,
2013-09-29 16:38:00,74.5,57.3,30.00,West,281,1.0,5.0,55,0.00,,---,0.00,VWS V14.01,2013-09-29 20:38:00,
2013-09-29 16:40:00,73.6,57.9,30.01,ESE,113,0.0,3.0,58,0.00,,---,0.00,VWS V14.01,2013-09-29 20:40:00,
2013-09-29 16:43:00,74.5,57.3,30.00,SW,223,7.0,7.0,55,0.00,,---,0.00,VWS V14.01,2013-09-29 20:43:00,
2013-09-29 16:45:00,73.3,58.6,30.01,East,89,1.0,2.0,60,0.00,,---,0.00,VWS V14.01,2013-09-29 20:45:00,
2013-09-29 16:48:00,74.2,57.0,30.00,WSW,242,1.0,5.0,55,0.00,,---,0.00,VWS V14.01,2013-09-29 20:48:00,
2013-09-29 16:50:00,72.9,58.2,30.01,ESE,118,0.0,2.0,60,0.00,,---,0.00,VWS V14.01,2013-09-29 20:50:00,
2013-09-29 16:53:00,74.3,57.1,30.00,West,261,0.0,1.0,55,0.00,,---,0.00,VWS V14.01,2013-09-29 20:53:00,
2013-09-29 16:55:00,73.2,59.0,30.01,ENE,74,3.0,3.0,61,0.00,,---,0.00,VWS V14.01,2013-09-29 20:55:00,
2013-09-29 16:58:00,73.6,57.9,30.00,WSW,252,1.0,2.0,58,0.00,,---,0.00,VWS V14.01,2013-09-29 20:58:00,
2013-09-29 17:00:00,73.0,56.9,30.01,East,89,2.0,3.0,57,0.00,,---,0.00,VWS V14.01,2013-09-29 21:00:00,
2013-09-29 17:03:00,73.7,57.0,30.00,SW,218,0.0,1.0,56,0.00,,---,0.00,VWS V14.01,2013-09-29 21:03:00,
2013-09-29 17:05:00,72.7,56.6,30.00,East,96,1.0,3.0,57,0.00,,---,0.00,VWS V14.01,2013-09-29 21:05:00,
2013-09-29 17:08:00,73.9,57.2,30.00,NW,308,0.0,1.0,56,0.00,,---,0.00,VWS V14.01,2013-09-29 21:08:00,
2013-09-29 17:10:00,73.2,57.5,30.00,East,92,0.0,1.0,58,0.00,,---,0.00,VWS V14.01,2013-09-29 21:10:00,
2013-09-29 17:13:00,74.0,57.3,30.00,SE,134,0.0,3.0,56,0.00,,---,0.00,VWS V14.01,2013-09-29 21:13:00,
2013-09-29 17:15:00,73.9,57.7,30.00,SW,236,0.0,2.0,57,0.00,,---,0.00,VWS V14.01,2013-09-29 21:15:00,
2013-09-29 17:18:00,74.0,57.8,30.00,SE,134,0.0,1.0,57,0.00,,---,0.00,VWS V14.01,2013-09-29 21:18:00,
2013-09-29 17:20:00,74.0,57.3,30.01,NNW,333,0.0,3.0,56,0.00,,---,0.00,VWS V14.01,2013-09-29 21:20:00,
2013-09-29 17:23:00,74.2,58.5,30.00,SE,134,0.0,1.0,58,0.00,,---,0.00,VWS V14.01,2013-09-29 21:23:00,
2013-09-29 17:25:00,74.5,57.8,30.00,WSW,244,1.0,1.0,56,0.00,,---,0.00,VWS V14.01,2013-09-29 21:25:00,
2013-09-29 17:28:00,73.7,58.0,30.00,SE,134,0.0,1.0,58,0.00,,---,0.00,VWS V14.01,2013-09-29 21:28:00,
2013-09-29 17:30:00,74.3,57.1,30.00,WSW,251,0.0,5.0,55,0.00,,---,0.00,VWS V14.01,2013-09-29 21:30:00,
2013-09-29 17:33:00,73.8,60.0,30.00,SE,134,0.0,0.0,62,0.00,,---,0.00,VWS V14.01,2013-09-29 21:33:00,
2013-09-29 17:35:00,75.0,57.8,30.00,NW,323,2.0,3.0,55,0.00,,---,0.00,VWS V14.01,2013-09-29 21:35:00,
2013-09-29 17:38:00,73.3,61.3,30.00,SE,134,0.0,0.0,66,0.00,,---,0.00,VWS V14.01,2013-09-29 21:38:00,
2013-09-29 17:40:00,74.5,58.3,30.00,West,262,1.0,5.0,57,0.00,,---,0.00,VWS V14.01,2013-09-29 21:40:00,
2013-09-29 17:43:00,73.1,61.9,30.00,SE,134,0.0,0.0,68,0.00,,---,0.00,VWS V14.01,2013-09-29 21:43:00,
2013-09-29 17:45:00,74.5,57.3,30.00,SW,236,1.0,7.0,55,0.00,,---,0.00,VWS V14.01,2013-09-29 21:45:00,
2013-09-29 17:48:00,72.6,60.6,30.00,SE,134,0.0,0.0,66,0.00,,---,0.00,VWS V14.01,2013-09-29 21:48:00,
2013-09-29 17:50:00,74.2,57.0,30.00,SW,236,0.0,5.0,55,0.00,,---,0.00,VWS V14.01,2013-09-29 21:50:00,
2013-09-29 17:53:00,72.4,62.1,30.00,SE,134,0.0,0.0,70,0.00,,---,0.00,VWS V14.01,2013-09-29 21:53:00,
2013-09-29 17:55:00,74.2,57.5,30.00,WNW,302,2.0,3.0,56,0.00,,---,0.00,VWS V14.01,2013-09-29 21:55:00,
2013-09-29 17:58:00,71.9,62.0,30.00,SE,134,0.0,0.0,71,0.00,,---,0.00,VWS V14.01,2013-09-29 21:58:00,
2013-09-29 18:00:00,73.4,57.3,30.00,SW,234,1.0,2.0,57,0.00,,---,0.00,VWS V14.01,2013-09-29 22:00:00,
2013-09-29 18:03:00,71.5,62.0,30.00,SE,134,0.0,0.0,72,0.00,,---,0.00,VWS V14.01,2013-09-29 22:03:00,
2013-09-29 18:05:00,73.8,57.6,30.00,SW,218,0.0,1.0,57,0.00,,---,0.00,VWS V14.01,2013-09-29 22:05:00,
2013-09-29 18:09:00,71.4,62.3,30.00,SE,134,0.0,0.0,73,0.00,,---,0.00,VWS V14.01,2013-09-29 22:09:00,
2013-09-29 18:10:00,74.0,57.3,30.00,SSE,156,2.0,3.0,56,0.00,,---,0.00,VWS V14.01,2013-09-29 22:10:00,
2013-09-29 18:14:00,71.2,62.9,30.00,SE,134,0.0,0.0,75,0.00,,---,0.00,VWS V14.01,2013-09-29 22:14:00,
2013-09-29 18:15:00,73.9,57.2,30.00,SE,134,0.0,3.0,56,0.00,,---,0.00,VWS V14.01,2013-09-29 22:15:00,
2013-09-29 18:19:00,70.1,62.2,30.00,SE,134,0.0,0.0,76,0.00,,---,0.00,VWS V14.01,2013-09-29 22:19:00,
2013-09-29 18:20:00,74.0,58.3,30.00,SE,134,0.0,1.0,58,0.00,,---,0.00,VWS V14.01,2013-09-29 22:20:00,
2013-09-29 18:24:00,69.8,62.3,30.00,SE,134,0.0,0.0,77,0.00,,---,0.00,VWS V14.01,2013-09-29 22:24:00,
2013-09-29 18:25:00,74.2,59.0,30.00,SE,134,0.0,1.0,59,0.00,,---,0.00,VWS V14.01,2013-09-29 22:25:00,
2013-09-29 18:29:00,69.5,62.3,30.00,SE,134,0.0,0.0,78,0.00,,---,0.00,VWS V14.01,2013-09-29 22:29:00,
2013-09-29 18:30:00,73.7,58.5,30.00,SE,134,0.0,1.0,59,0.00,,---,0.00,VWS V14.01,2013-09-29 22:30:00,
2013-09-29 18:34:00,68.9,62.1,30.00,SE,134,0.0,0.0,79,0.00,,---,0.00,VWS V14.01,2013-09-29 22:34:00,
2013-09-29 18:35:00,73.7,60.3,30.00,SE,134,0.0,0.0,63,0.00,,---,0.00,VWS V14.01,2013-09-29 22:35:00,
2013-09-29 18:39:00,68.7,62.3,30.00,SE,134,0.0,0.0,80,0.00,,---,0.00,VWS V14.01,2013-09-29 22:39:00,
2013-09-29 18:40:00,73.3,61.7,30.00,SE,134,0.0,0.0,67,0.00,,---,0.00,VWS V14.01,2013-09-29 22:40:00,
2013-09-29 18:44:00,68.8,62.7,30.00,SE,134,0.0,0.0,81,0.00,,---,0.00,VWS V14.01,2013-09-29 22:44:00,
2013-09-29 18:45:00,73.0,62.2,30.00,SE,134,0.0,0.0,69,0.00,,---,0.00,VWS V14.01,2013-09-29 22:45:00,
2013-09-29 18:49:00,68.6,62.5,30.00,SE,134,0.0,0.0,81,0.00,,---,0.00,VWS V14.01,2013-09-29 22:49:00,
2013-09-29 18:50:00,72.6,60.6,30.00,SE,134,0.0,0.0,66,0.00,,---,0.00,VWS V14.01,2013-09-29 22:50:00,
2013-09-29 18:54:00,68.5,62.5,30.00,SE,134,0.0,0.0,81,0.00,,---,0.00,VWS V14.01,2013-09-29 22:54:00,
2013-09-29 18:55:00,72.3,62.4,30.00,SE,134,0.0,0.0,71,0.00,,---,0.00,VWS V14.01,2013-09-29 22:55:00,
2013-09-29 18:59:00,68.4,62.3,30.00,SE,134,0.0,0.0,81,0.00,,---,0.00,VWS V14.01,2013-09-29 22:59:00,
2013-09-29 19:00:00,71.8,61.5,30.00,SE,134,0.0,0.0,70,0.00,,---,0.00,VWS V14.01,2013-09-29 23:00:00,
2013-09-29 19:04:00,67.7,62.7,30.00,SE,134,0.0,0.0,84,0.00,,---,0.00,VWS V14.01,2013-09-29 23:04:00,
2013-09-29 19:05:00,71.5,62.4,30.00,SE,134,0.0,0.0,73,0.00,,---,0.00,VWS V14.01,2013-09-29 23:05:00,
2013-09-29 19:09:00,67.3,62.3,30.00,SE,134,0.0,0.0,84,0.00,,---,0.00,VWS V14.01,2013-09-29 23:09:00,
2013-09-29 19:10:00,71.3,62.2,30.00,SE,134,0.0,0.0,73,0.00,,---,0.00,VWS V14.01,2013-09-29 23:10:00,
2013-09-29 19:14:00,67.2,62.2,30.00,SE,134,0.0,0.0,84,0.00,,---,0.00,VWS V14.01,2013-09-29 23:14:00,
2013-09-29 19:15:00,71.1,62.0,30.00,SE,134,0.0,0.0,73,0.00,,---,0.00,VWS V14.01,2013-09-29 23:15:00,
2013-09-29 19:19:00,67.1,62.5,30.00,SE,134,0.0,0.0,85,0.00,,---,0.00,VWS V14.01,2013-09-29 23:19:00,
2013-09-29 19:20:00,70.0,61.7,30.00,SE,134,0.0,0.0,75,0.00,,---,0.00,VWS V14.01,2013-09-29 23:20:00,
2013-09-29 19:24:00,67.0,62.0,30.00,SE,134,0.0,0.0,84,0.00,,---,0.00,VWS V14.01,2013-09-29 23:24:00,
2013-09-29 19:25:00,69.8,62.3,30.00,SE,134,0.0,0.0,77,0.00,,---,0.00,VWS V14.01,2013-09-29 23:25:00,
2013-09-29 19:29:00,66.7,62.0,30.00,SE,134,0.0,0.0,85,0.00,,---,0.00,VWS V14.01,2013-09-29 23:29:00,
2013-09-29 19:30:00,69.4,62.2,30.00,SE,134,0.0,0.0,78,0.00,,---,0.00,VWS V14.01,2013-09-29 23:30:00,
2013-09-29 19:34:00,66.4,62.1,30.00,SE,134,0.0,0.0,86,0.00,,---,0.00,VWS V14.01,2013-09-29 23:34:00,
2013-09-29 19:35:00,68.9,62.1,30.00,SE,134,0.0,0.0,79,0.00,,---,0.00,VWS V14.01,2013-09-29 23:35:00,
2013-09-29 19:39:00,66.1,61.8,30.00,SE,134,0.0,0.0,86,0.00,,---,0.00,VWS V14.01,2013-09-29 23:39:00,
2013-09-29 19:40:00,68.7,61.9,30.00,SE,134,0.0,0.0,79,0.00,,---,0.00,VWS V14.01,2013-09-29 23:40:00,
2013-09-29 19:44:00,65.9,61.9,30.00,SE,134,0.0,0.0,87,0.00,,---,0.00,VWS V14.01,2013-09-29 23:44:00,
2013-09-29 19:45:00,68.8,63.1,30.00,SE,134,0.0,0.0,82,0.00,,---,0.00,VWS V14.01,2013-09-29 23:45:00,
2013-09-29 19:49:00,65.5,61.5,29.99,SE,134,0.0,0.0,87,0.00,,---,0.00,VWS V14.01,2013-09-29 23:49:00,
2013-09-29 19:50:00,68.6,62.9,30.00,SE,134,0.0,0.0,82,0.00,,---,0.00,VWS V14.01,2013-09-29 23:50:00,
2013-09-29 19:54:00,65.2,61.6,29.99,SE,134,0.0,0.0,88,0.00,,---,0.00,VWS V14.01,2013-09-29 23:54:00,
2013-09-29 19:55:00,68.5,62.5,30.00,SE,134,0.0,0.0,81,0.00,,---,0.00,VWS V14.01,2013-09-29 23:55:00,
2013-09-29 19:59:00,65.0,61.4,29.99,SE,134,0.0,0.0,88,0.00,,---,0.00,VWS V14.01,2013-09-29 23:59:00,
2013-09-29 20:00:00,68.3,62.2,30.00,SE,134,0.0,0.0,81,0.00,,---,0.00,VWS V14.01,2013-09-30 00:00:00,
2013-09-29 20:04:00,64.8,61.5,29.99,SW,226,0.0,1.0,89,0.00,,---,0.00,VWS V14.01,2013-09-30 00:04:00,
2013-09-29 20:05:00,67.7,62.7,30.00,SE,134,0.0,0.0,84,0.00,,---,0.00,VWS V14.01,2013-09-30 00:05:00,
2013-09-29 20:09:00,64.7,62.0,29.99,WSW,243,0.0,1.0,91,0.00,,---,0.00,VWS V14.01,2013-09-30 00:09:00,
2013-09-29 20:10:00,67.3,62.3,30.00,SE,134,0.0,0.0,84,0.00,,---,0.00,VWS V14.01,2013-09-30 00:10:00,
2013-09-29 20:14:00,64.6,61.6,29.99,WSW,243,0.0,1.0,90,0.00,,---,0.00,VWS V14.01,2013-09-30 00:14:00,
2013-09-29 20:15:00,67.2,62.2,30.00,SE,134,0.0,0.0,84,0.00,,---,0.00,VWS V14.01,2013-09-30 00:15:00,
2013-09-29 20:19:00,64.6,61.6,29.99,WSW,243,0.0,0.0,90,0.00,,---,0.00,VWS V14.01,2013-09-30 00:19:00,
2013-09-29 20:20:00,67.1,62.1,30.00,SE,134,0.0,0.0,84,0.00,,---,0.00,VWS V14.01,2013-09-30 00:20:00,
2013-09-29 20:24:00,64.6,61.6,29.99,SW,222,0.0,2.0,90,0.00,,---,0.00,VWS V14.01,2013-09-30 00:24:00,
2013-09-29 20:25:00,67.0,62.3,30.00,SE,134,0.0,0.0,85,0.00,,---,0.00,VWS V14.01,2013-09-30 00:25:00,
2013-09-29 20:29:00,64.6,61.6,29.98,SW,222,0.0,1.0,90,0.00,,---,0.00,VWS V14.01,2013-09-30 00:29:00,
2013-09-29 20:30:00,66.7,62.0,30.00,SE,134,0.0,0.0,85,0.00,,---,0.00,VWS V14.01,2013-09-30 00:30:00,
2013-09-29 20:34:00,64.6,61.6,29.98,SW,219,0.0,2.0,90,0.00,,---,0.00,VWS V14.01,2013-09-30 00:34:00,
2013-09-29 20:35:00,66.4,62.1,30.00,SE,134,0.0,0.0,86,0.00,,---,0.00,VWS V14.01,2013-09-30 00:35:00,
2013-09-29 20:39:00,64.5,61.5,29.98,SW,217,0.0,0.0,90,0.00,,---,0.00,VWS V14.01,2013-09-30 00:39:00,
2013-09-29 20:40:00,66.1,61.8,30.00,SE,134,0.0,0.0,86,0.00,,---,0.00,VWS V14.01,2013-09-30 00:40:00,
2013-09-29 20:44:00,64.3,61.3,29.98,SW,233,0.0,1.0,90,0.00,,---,0.00,VWS V14.01,2013-09-30 00:44:00,
2013-09-29 20:45:00,65.9,61.9,30.00,SE,134,0.0,0.0,87,0.00,,---,0.00,VWS V14.01,2013-09-30 00:45:00,
2013-09-29 20:49:00,64.3,61.3,29.98,SW,233,0.0,1.0,90,0.00,,---,0.00,VWS V14.01,2013-09-30 00:49:00,
2013-09-29 20:50:00,65.5,61.5,29.99,SE,134,0.0,0.0,87,0.00,,---,0.00,VWS V14.01,2013-09-30 00:50:00,
2013-09-29 20:54:00,64.3,61.3,29.98,SW,233,0.0,0.0,90,0.00,,---,0.00,VWS V14.01,2013-09-30 00:54:00,
2013-09-29 20:55:00,65.2,61.6,29.99,SE,134,0.0,0.0,88,0.00,,---,0.00,VWS V14.01,2013-09-30 00:55:00,
2013-09-29 20:59:00,64.1,61.4,29.98,SW,233,0.0,0.0,91,0.00,,---,0.00,VWS V14.01,2013-09-30 00:59:00,
2013-09-29 21:00:00,68.3,62.2,30.00,SE,134,0.0,0.0,81,0.00,,---,0.00,VWS V14.01,2013-09-30 01:00:00,
2013-09-29 21:04:00,63.9,61.2,29.99,SW,233,0.0,0.0,91,0.00,,---,0.00,VWS V14.01,2013-09-30 01:04:00,
2013-09-29 21:05:00,64.8,61.5,29.99,SW,229,0.0,1.0,89,0.00,,---,0.00,VWS V14.01,2013-09-30 01:05:00,
2013-09-29 21:09:00,63.8,61.4,29.99,SW,233,0.0,0.0,92,0.00,,---,0.00,VWS V14.01,2013-09-30 01:09:00,
2013-09-29 21:10:00,67.3,62.3,30.00,SE,134,0.0,0.0,84,0.00,,---,0.00,VWS V14.01,2013-09-30 01:10:00,
2013-09-29 21:14:00,63.7,61.3,29.99,SW,233,0.0,0.0,92,0.00,,---,0.00,VWS V14.01,2013-09-30 01:14:00,
2013-09-29 21:15:00,64.6,61.6,29.99,WSW,243,0.0,1.0,90,0.00,,---,0.00,VWS V14.01,2013-09-30 01:15:00,
2013-09-29 21:19:00,63.6,61.2,29.99,SW,233,0.0,0.0,92,0.00,,---,0.00,VWS V14.01,2013-09-30 01:19:00,
2013-09-29 21:20:00,67.1,62.1,30.00,SE,134,0.0,0.0,84,0.00,,---,0.00,VWS V14.01,2013-09-30 01:20:00,
2013-09-29 21:25:00,63.4,61.0,29.99,SW,233,0.0,0.0,92,0.00,,---,0.00,VWS V14.01,2013-09-30 01:25:00,
2013-09-29 21:30:00,63.4,61.0,30.00,SW,233,0.0,0.0,92,0.00,,---,0.00,VWS V14.01,2013-09-30 01:30:00,
2013-09-29 21:35:00,63.4,61.0,30.00,SW,233,0.0,0.0,92,0.00,,---,0.00,VWS V14.01,2013-09-30 01:35:00,
2013-09-29 21:40:00,63.3,60.9,30.00,SW,233,0.0,0.0,92,0.00,,---,0.00,VWS V14.01,2013-09-30 01:40:00,
2013-09-29 21:45:00,63.2,61.2,29.99,SW,233,0.0,0.0,93,0.00,,---,0.00,VWS V14.01,2013-09-30 01:45:00,
2013-09-29 21:50:00,63.0,61.0,29.99,SW,233,0.0,0.0,93,0.00,,---,0.00,VWS V14.01,2013-09-30 01:50:00,
2013-09-29 21:55:00,63.0,61.0,29.99,SW,233,0.0,0.0,93,0.00,,---,0.00,VWS V14.01,2013-09-30 01:55:00,
2013-09-29 22:00:00,62.8,60.5,29.99,SW,233,0.0,0.0,92,0.00,,---,0.00,VWS V14.01,2013-09-30 02:00:00,
2013-09-29 22:05:00,62.8,60.8,29.99,SW,233,0.0,0.0,93,0.00,,---,0.00,VWS V14.01,2013-09-30 02:05:00,
2013-09-29 22:10:00,62.9,60.8,29.99,SW,233,0.0,0.0,93,0.00,,---,0.00,VWS V14.01,2013-09-30 02:10:00,
2013-09-29 22:15:00,62.9,60.8,29.99,SW,232,0.0,0.0,93,0.00,,---,0.00,VWS V14.01,2013-09-30 02:15:00,
2013-09-29 22:20:00,62.7,61.0,29.99,SW,233,1.0,1.0,94,0.00,,---,0.00,VWS V14.01,2013-09-30 02:20:00,
2013-09-29 22:25:00,62.6,60.8,30.00,WSW,255,0.0,0.0,94,0.00,,---,0.00,VWS V14.01,2013-09-30 02:25:00,
2013-09-29 22:30:00,62.5,60.8,30.01,WSW,255,0.0,0.0,94,0.00,,---,0.00,VWS V14.01,2013-09-30 02:30:00,
2013-09-29 22:35:00,62.4,60.7,30.01,WSW,255,0.0,0.0,94,0.00,,---,0.00,VWS V14.01,2013-09-30 02:35:00,
2013-09-29 22:40:00,62.3,60.8,30.01,WSW,253,0.0,1.0,95,0.00,,---,0.00,VWS V14.01,2013-09-30 02:40:00,
2013-09-29 22:45:00,62.2,60.8,30.01,WSW,253,0.0,0.0,95,0.00,,---,0.00,VWS V14.01,2013-09-30 02:45:00,
2013-09-29 22:50:00,62.1,60.7,30.01,WSW,253,0.0,0.0,95,0.00,,---,0.00,VWS V14.01,2013-09-30 02:50:00,
2013-09-29 22:55:00,61.9,60.5,30.02,WSW,254,0.0,1.0,95,0.00,,---,0.00,VWS V14.01,2013-09-30 02:55:00,
2013-09-29 23:00:00,62.0,60.6,30.02,WSW,254,0.0,0.0,95,0.00,,---,0.00,VWS V14.01,2013-09-30 03:00:00,
2013-09-29 23:05:00,61.9,60.5,30.02,WSW,254,0.0,0.0,95,0.00,,---,0.00,VWS V14.01,2013-09-30 03:05:00,
2013-09-29 23:10:00,61.8,60.4,30.02,WSW,254,0.0,0.0,95,0.00,,---,0.00,VWS V14.01,2013-09-30 03:10:00,
2013-09-29 23:15:00,61.7,60.5,30.02,WSW,254,0.0,0.0,96,0.00,,---,0.00,VWS V14.01,2013-09-30 03:15:00,
2013-09-29 23:20:00,61.6,60.5,30.02,WSW,254,0.0,0.0,96,0.00,,---,0.00,VWS V14.01,2013-09-30 03:20:00,
2013-09-29 23:25:00,62.6,60.8,30.00,WSW,254,0.0,1.0,94,0.00,,---,0.00,VWS V14.01,2013-09-30 03:25:00,
2013-09-29 23:26:00,61.5,60.3,30.02,WSW,254,0.0,0.0,96,0.00,,---,0.00,VWS V14.01,2013-09-30 03:26:00,
2013-09-29 23:30:00,62.5,60.8,30.01,WSW,254,0.0,0.0,94,0.00,,---,0.00,VWS V14.01,2013-09-30 03:30:00,
2013-09-29 23:31:00,61.4,60.2,30.02,WSW,254,0.0,0.0,96,0.00,,---,0.00,VWS V14.01,2013-09-30 03:31:00,
2013-09-29 23:35:00,62.4,60.7,30.01,WSW,254,0.0,0.0,94,0.00,,---,0.00,VWS V14.01,2013-09-30 03:35:00,
2013-09-29 23:36:00,61.2,60.3,30.02,WSW,254,0.0,0.0,97,0.00,,---,0.00,VWS V14.01,2013-09-30 03:36:00,
2013-09-29 23:40:00,62.3,60.8,30.01,WSW,255,1.0,1.0,95,0.00,,---,0.00,VWS V14.01,2013-09-30 03:40:00,
2013-09-29 23:41:00,61.1,60.0,30.01,WSW,254,0.0,0.0,96,0.00,,---,0.00,VWS V14.01,2013-09-30 03:41:00,
2013-09-29 23:45:00,62.2,60.8,30.01,WSW,253,0.0,1.0,95,0.00,,---,0.00,VWS V14.01,2013-09-30 03:45:00,
2013-09-29 23:46:00,60.9,60.0,30.01,WSW,254,0.0,0.0,97,0.00,,---,0.00,VWS V14.01,2013-09-30 03:46:00,
2013-09-29 23:50:00,62.1,60.7,30.01,WSW,253,0.0,0.0,95,0.00,,---,0.00,VWS V14.01,2013-09-30 03:50:00,
2013-09-29 23:51:00,60.6,59.5,30.02,WSW,254,0.0,0.0,96,0.00,,---,0.00,VWS V14.01,2013-09-30 03:51:00,
2013-09-29 23:55:00,62.0,60.6,30.02,WSW,254,0.0,0.0,95,0.00,,---,0.00,VWS V14.01,2013-09-30 03:55:00,
2013-09-29 23:56:00,60.4,59.5,30.02,WSW,254,0.0,0.0,97,0.00,,---,0.00,VWS V14.01,2013-09-30 03:56:00,